Weather History for Ainsworth, NE

Change the Weather History Date:

Tuesday, October 1, 2013

  Actual Average Record
Temperature  
Mean Temperature 58 °F -  
Max Temperature 72 °F 65 °F 91 °F (1997)
Min Temperature 45 °F 41 °F 30 °F (1999)
Degree Days  
Heating Degree Days 6    
Growing Degree Days 8 (Base 50)    
Moisture  
Dew Point 38 °F    
Average Humidity 49    
Maximum Humidity 78    
Minimum Humidity 23    
Precipitation  
Precipitation 0.00 in - - ()
Sea Level Pressure  
Sea Level Pressure 29.96 in    
Wind  
Wind Speed 8 mph (NNE)    
Max Wind Speed 17 mph    
Max Gust Speed 24 mph    
Visibility 10 miles    
Events      
Averages and records for this station are not official NWS values.
T = Trace of Precipitation, MM = Missing Value Source: NWS Daily Summary

Daily Weather History Graph

Daily Weather History Graph

Search for Another Location

Airport:

Trip Planner

Search our weather history database for the weather conditions in past years. The results will help you decide how hot, cold, wet, or windy it might be!

Date:

Astronomy

Oct. 01, 2013 Rise Set
Actual Time 7:37 AM CDT 7:20 PM CDT
Civil Twilight 7:09 AM CDT 7:48 PM CDT
Nautical Twilight 6:36 AM CDT 8:21 PM CDT
Astronomical Twilight 6:03 AM CDT 8:54 PM CDT
Moon 4:09 AM CDT (10/1) 5:28 PM CDT (10/1)
Length of Visible Light 12h 39m
Length of Day
11h 43m
Waning Crescent, 12% of the Moon is Illuminated
Oct 1
Waning Crescent
Oct 4
New
Oct 11
First Quarter
Oct 18
Full
Oct 26
Last Quarter

Hourly Weather History & Observations

Time (CDT) Temp. Windchill Dew Point Humidity Pressure Visibility Wind Dir Wind Speed Gust Speed Precip Events Conditions
12:15 AM 63.5 °F - 47.8 °F 57% 29.81 in 10.0 mi NW 17.3 mph 24.2 mph N/A   Clear
12:35 AM 60.8 °F - 47.5 °F 62% 29.83 in 10.0 mi NW 17.3 mph 23.0 mph N/A   Clear
12:55 AM 59.4 °F - 46.6 °F 63% 29.83 in 10.0 mi NW 11.5 mph - N/A   Clear
1:15 AM 57.9 °F - 45.7 °F 64% 29.83 in 10.0 mi NW 10.4 mph - N/A   Clear
1:35 AM 58.1 °F - 43.7 °F 59% 29.83 in 10.0 mi NW 9.2 mph - N/A   Clear
1:55 AM 57.2 °F - 42.8 °F 59% 29.84 in 10.0 mi NW 8.1 mph - N/A   Clear
2:15 AM 56.8 °F - 41.2 °F 56% 29.85 in 10.0 mi NW 8.1 mph - N/A   Clear
2:35 AM 56.1 °F - 41.0 °F 57% 29.87 in 10.0 mi WNW 5.8 mph - N/A   Clear
2:55 AM 51.8 °F - 41.2 °F 67% 29.88 in 10.0 mi Calm Calm - N/A   Clear
3:15 AM 53.8 °F - 40.6 °F 61% 29.88 in 10.0 mi West 4.6 mph - N/A   Clear
3:35 AM 54.1 °F - 40.3 °F 59% 29.88 in 10.0 mi WNW 8.1 mph - N/A   Clear
3:55 AM 51.6 °F - 40.6 °F 66% 29.89 in 10.0 mi WNW 6.9 mph - N/A   Clear
4:15 AM 51.1 °F - 40.3 °F 67% 29.90 in 10.0 mi West 4.6 mph - N/A   Clear
4:35 AM 51.1 °F - 40.3 °F 67% 29.90 in 10.0 mi NW 11.5 mph - N/A   Clear
4:55 AM 51.6 °F - 40.1 °F 65% 29.90 in 10.0 mi NW 5.8 mph - N/A   Clear
5:15 AM 50.4 °F - 39.9 °F 67% 29.92 in 10.0 mi NW 4.6 mph - N/A   Clear
5:35 AM 48.0 °F - 39.4 °F 72% 29.93 in 10.0 mi Calm Calm - N/A   Clear
5:55 AM 49.5 °F - 39.6 °F 69% 29.94 in 10.0 mi West 3.5 mph - N/A   Clear
6:15 AM 46.6 °F - 38.7 °F 74% 29.95 in 10.0 mi Calm Calm - N/A   Clear
6:35 AM 47.3 °F - 39.7 °F 75% 29.96 in 10.0 mi West 4.6 mph - N/A   Clear
6:55 AM 48.4 °F - 39.2 °F 71% 29.96 in 10.0 mi NW 5.8 mph - N/A   Clear
7:15 AM 46.4 °F 44.3 °F 38.7 °F 74% 29.97 in 10.0 mi West 4.6 mph - N/A   Clear
7:35 AM 46.4 °F 43.5 °F 39.2 °F 76% 29.98 in 10.0 mi WNW 5.8 mph - N/A   Clear
7:55 AM 46.0 °F 42.5 °F 38.8 °F 76% 29.98 in 10.0 mi WNW 6.9 mph - N/A   Clear
8:15 AM 45.7 °F 42.7 °F 39.2 °F 78% 29.99 in 10.0 mi WNW 5.8 mph - N/A   Clear
8:35 AM 48.6 °F - 39.9 °F 72% 29.99 in 10.0 mi WNW 4.6 mph - N/A   Clear
8:55 AM 50.7 °F - 41.2 °F 70% 30.01 in 10.0 mi WNW 5.8 mph - N/A   Clear
9:15 AM 53.4 °F - 40.5 °F 61% 30.01 in 10.0 mi NW 6.9 mph - N/A   Clear
9:35 AM 56.8 °F - 39.2 °F 52% 30.02 in 10.0 mi NNW 6.9 mph - N/A   Clear
9:55 AM 59.9 °F - 36.5 °F 42% 30.03 in 10.0 mi North 10.4 mph - N/A   Clear
10:15 AM 61.9 °F - 34.0 °F 35% 30.03 in 10.0 mi North 10.4 mph - N/A   Clear
10:35 AM 63.1 °F - 32.9 °F 32% 30.03 in 10.0 mi North 10.4 mph - N/A   Clear
10:55 AM 64.2 °F - 32.5 °F 31% 30.03 in 10.0 mi North 9.2 mph - N/A   Clear
11:15 AM 65.3 °F - 32.9 °F 30% 30.03 in 10.0 mi North 5.8 mph - N/A   Clear
11:35 AM 66.2 °F - 33.6 °F 30% 30.04 in 10.0 mi North 5.8 mph - N/A   Clear
11:55 AM 66.4 °F - 30.9 °F 27% 30.04 in 10.0 mi Calm Calm - N/A   Clear
12:15 PM 67.1 °F - 30.7 °F 26% 30.04 in 10.0 mi NE 5.8 mph - N/A   Clear
12:35 PM 67.6 °F - 29.7 °F 24% 30.03 in 10.0 mi NNE 4.6 mph - N/A   Clear
12:55 PM 68.2 °F - 30.4 °F 24% 30.03 in 10.0 mi Calm Calm - N/A   Clear
1:15 PM 68.5 °F - 30.7 °F 25% 30.03 in 10.0 mi ESE 4.6 mph - N/A   Clear
1:35 PM 68.7 °F - 30.6 °F 24% 30.03 in 10.0 mi Calm Calm - N/A   Clear
1:55 PM 69.3 °F - 29.7 °F 23% 30.02 in 10.0 mi SE 4.6 mph - N/A   Clear
2:15 PM 70.3 °F - 31.5 °F 24% 30.01 in 10.0 mi Calm Calm - N/A   Clear
2:35 PM 70.5 °F - 31.3 °F 23% 30.01 in 10.0 mi Calm Calm - N/A   Clear
2:55 PM 70.5 °F - 32.2 °F 24% 30.01 in 10.0 mi SSE 5.8 mph - N/A   Clear
3:15 PM 71.4 °F - 32.4 °F 24% 30.00 in 10.0 mi ESE 5.8 mph - N/A   Clear
3:35 PM 71.4 °F - 32.2 °F 24% 29.99 in 3.0 mi SSE 5.8 mph - N/A   Haze
3:55 PM 72.1 °F - 32.4 °F 23% 29.99 in 10.0 mi SE 5.8 mph - N/A   Clear
4:15 PM 72.0 °F - 32.4 °F 23% 29.99 in 10.0 mi South 6.9 mph - N/A   Clear
4:35 PM 72.3 °F - 32.5 °F 23% 29.98 in 10.0 mi SSE 3.5 mph - N/A   Clear
4:55 PM 72.1 °F - 33.3 °F 24% 29.98 in 10.0 mi ESE 9.2 mph - N/A   Clear
5:15 PM 72.3 °F - 32.4 °F 23% 29.98 in 10.0 mi ESE 5.8 mph - N/A   Clear
5:35 PM 72.1 °F - 33.6 °F 24% 29.97 in 10.0 mi ESE 6.9 mph - N/A   Clear
5:55 PM 71.6 °F - 33.6 °F 25% 29.97 in 10.0 mi ESE 9.2 mph - N/A   Clear
6:15 PM 70.9 °F - 34.5 °F 26% 29.97 in 10.0 mi ESE 8.1 mph - N/A   Clear
6:35 PM 69.4 °F - 37.0 °F 31% 29.97 in 10.0 mi ESE 5.8 mph - N/A   Clear
6:55 PM 66.9 °F - 38.8 °F 36% 29.97 in 10.0 mi ESE 4.6 mph - N/A   Clear
7:15 PM 64.2 °F - 40.1 °F 41% 29.97 in 10.0 mi ESE 5.8 mph - N/A   Clear
7:35 PM 60.3 °F - 41.0 °F 49% 29.97 in 10.0 mi ESE 6.9 mph - N/A   Clear
7:55 PM 57.4 °F - 41.4 °F 55% 29.97 in 10.0 mi ESE 6.9 mph - N/A   Clear
8:15 PM 56.8 °F - 41.2 °F 56% 29.97 in 10.0 mi ESE 6.9 mph - N/A   Clear
8:35 PM 55.6 °F - 41.0 °F 58% 29.97 in 10.0 mi SE 6.9 mph - N/A   Clear
8:55 PM 57.0 °F - 39.7 °F 52% 29.98 in 10.0 mi SE 6.9 mph - N/A   Clear
9:15 PM 56.3 °F - 39.2 °F 53% 29.98 in 10.0 mi SE 6.9 mph - N/A   Clear
9:35 PM 55.8 °F - 39.6 °F 55% 29.98 in 10.0 mi SE 5.8 mph - N/A   Clear
9:55 PM 55.6 °F - 39.4 °F 55% 29.98 in 7.0 mi SE 6.9 mph - N/A   Clear
10:15 PM 55.0 °F - 39.4 °F 56% 29.98 in 7.0 mi SE 6.9 mph - N/A   Clear
10:35 PM 54.9 °F - 39.2 °F 56% 29.98 in 7.0 mi SE 8.1 mph - N/A   Clear
10:55 PM 54.1 °F - 39.2 °F 57% 29.99 in 10.0 mi SE 6.9 mph - N/A   Clear
11:15 PM 52.0 °F - 39.4 °F 62% 29.99 in 10.0 mi ESE 3.5 mph - N/A   Clear
11:35 PM 51.8 °F - 39.4 °F 63% 29.99 in 10.0 mi SE 4.6 mph - N/A   Clear
11:55 PM 50.5 °F - 39.7 °F 66% 29.99 in 10.0 mi ESE 3.5 mph - N/A   Clear